Location: Bieujac
(44.5398°N, 0.1549°W)
Time: 23:23:49
(UTC+00:00)

STARLINK-80 - Pass Details

Date: 17 November 2019
Orbit: 492 x 497 km, 53.0° (Epoch: 09 December)

Event Time Altitude Azimuth Distance (km) Brightness Sun altitude
Exits shadow 05:31:57 31° 290° (WNW) 894 4.1 -15.5°
Maximum altitude 05:33:13 42° 336° (NNW) 723 3.9 -15.3°
Drops below altitude 10° 05:36:53 10° 48° (NE) 1,703 6.6 -14.6°
Sets 05:39:10 0° 56° (NE) 2,589 7.7 -14.2°
